ARIANE 44L+3 R/B, 23950

Orbit data source: Space-Track

ARIANE 44L+3 R/B, 23950 is space debris in HEO originally from a launch on Tue, 09 Jul 1996 UTC launched from the French Guiana (FRGUI). Debris objects in space refer to the collection of defunct objects orbiting the Earth. Examples of debris include non-operational satellites, rocket bodies, and fragments generated from explosions, collisions, or faulty payload assembly.

Loading next visibility...
Identifier
23950, 1996-040C
Orbit
HEO
Country
Flag of FRFR
Related business
Manufacturer
Ae/LesM
Mission
Spacecraft
Bus & Motor
ARIANE H10-3/S, Unknown motor
Mass
2,260 kg wet, 2,080 kg dry
Launch date (UTC)
1996-07-09 (30 years ago)
Launch vehicle
Unknown
Launch site
French Guiana (FRGUI)
Object type
Payload
Rocket body
Debris
Shape & HBR
Cyl, 5.5 m
Radar Cross Section
25.199 m², Large (>1 m²)

Expand to show TLE details & history
Last TLE update: 2 days ago

TLE from 2 days ago
0 ARIANE 44L+3 R/B
1 23950U 96040C   26171.12659729  .00001327  00000-0  10751-2 0  9995
2 23950   6.7162 158.6986 6890048 239.4688  35.8161  2.74665000271364
Epoch: 2026-06-20T03:02Z
TLE epoch observation values (Epoch: 2026-06-20T03:02:18.005Z)
Latitude
Longitude
-155.43373°
Altitude
10,959.186 km
Speed
5.241 km/s
True Right ascension
10h 33m 56s
True Declination
0° 00' 00"
Sunlit
Object was in daylight at epoch
Visualization orbit readout
Latitude
Unknown
Longitude
Unknown
Altitude
Unknown
Speed
Unknown
Apparent Right ascension
Unknown
Apparent Declination
Unknown
Sunlit
N/A
Visualization observer readout
Local Sidereal Time
01:06:03
Azimuth
Unknown
Elevation
Unknown
Doppler factor
Unknown
Orbital elements
Apogee altitude
30,008.077 km
Perigee altitude
321.63 km
Semi-major axis
21,542.99 km
Eccentricity
0.689
Inclination
6.7162°
RAAN
158.6986°
Arg. of periapsis
239.4688°
True anomaly
120.42043°
Mean anomaly
35.8161°
Eccentric anomaly
73.70793°
Mean motion
0.68641 °/min
Orbital period
524.47 mins
BSTAR
0.0010751
Loading maneuver chart data...
Computing Atmospheric mass density...
Loading historical data...
Loading historical data...
Loading historical data...
Loading historical data...
Loading historical data...
Loading historical data...
Loading historical data...
Other satellites on launch #40 in the year 1996 (1996-07-09 UTC)

Documentation

Showing up to 5 results
|